Wind_Speed
16 16 15 14 13 12 12 13 13 14 14 15 14 15 15 16 17 16 16 15 13 13 12 11 11 11 10 10 10 10 9 9 9 8 8 8 8 8 8 8 8 8 8 8 9 9 10 10 10 10 10 11 11 11 11 11 11 11 12 12 13 14 15 16 19 22 23 24 25 26 27 28 28 28 30 31 31 30 30 30 30 29 28 28 28
17 16 16 16 15 14 14 14 14 15 16 16 15 15 14 15 17 18 19 19 18 17 17 16 15 15 14 14 13 13 12 12 11 11 10 10 10 10 10 10 10 10 10 10 11 11 12 12 12 12 13 14 14 14 14 14 15 15 15 16 17 18 18 19 21 24 27 27 28 30 30 31 31 31 31 32 32 31 31 31 30 30 30 29 30
17 17 17 17 16 16 16 15 15 16 16 17 17 16 15 15 16 17 18 19 20 21 20 20 19 19 19 18 17 17 16 15 15 14 13 13 13 12 12 12 12 12 12 12 12 13 14 15 15 15 16 17 18 18 18 18 18 18 19 19 20 21 21 23 23 25 28 29 30 31 32 33 34 33 33 33 33 32 32 31 30 30 30 30 31
17 18 18 18 17 17 18 17 17 17 17 17 18 18 18 17 17 17 18 18 19 20 21 22 22 23 23 23 22 21 20 20 19 18 17 17 16 16 15 16 15 15 15 15 15 16 17 17 17 17 18 20 21 21 21 22 22 22 22 23 24 24 23 25 26 27 29 31 32 33 34 35 35 35 34 34 34 33 33 33 32 32 31 31 32
18 19 19 19 19 19 18 18 18 18 18 18 18 18 20 20 20 20 19 19 19 19 20 21 22 23 24 24 24 24 24 23 23 22 22 21 20 20 20 20 19 19 19 18 18 18 19 20 19 19 20 22 23 24 24 24 24 24 25 25 26 26 26 26 28 29 31 33 34 34 35 37 37 36 35 34 34 34 33 33 33 34 33 34 35
20 20 20 20 20 20 20 20 19 19 19 19 19 19 20 21 21 22 22 21 21 21 21 21 21 22 22 23 24 24 25 25 26 25 25 25 25 25 24 24 23 23 23 23 22 22 22 23 22 22 23 24 24 25 25 25 25 25 26 26 27 27 28 29 31 32 34 35 36 36 36 37 38 37 36 34 33 33 33 33 34 34 35 36 38
23 23 22 22 22 21 21 21 20 20 20 20 20 21 21 20 21 22 23 23 23 22 22 22 22 22 22 22 22 23 24 25 26 26 26 26 27 27 27 27 27 27 27 27 27 26 26 27 26 26 26 27 27 27 26 27 27 28 28 29 29 30 31 33 34 35 36 37 37 37 38 37 38 37 36 34 33 32 32 33 33 34 35 37 38
25 26 26 26 25 23 22 21 22 22 22 21 22 22 22 22 21 22 23 24 24 24 24 24 24 24 24 24 23 24 24 25 25 25 26 26 27 28 28 29 29 29 30 30 30 30 30 31 31 31 31 31 31 30 30 30 30 31 32 32 33 34 34 35 36 37 38 38 38 38 37 37 37 37 35 34 33 30 29 31 33 35 36 37 38
27 27 28 28 27 26 24 23 22 23 23 23 23 23 23 23 23 23 23 24 24 24 25 25 25 25 25 25 25 26 26 26 25 24 25 26 26 27 28 29 29 30 30 31 31 32 32 32 33 33 33 33 33 33 34 33 34 35 35 36 36 37 37 38 38 38 38 38 39 38 36 36 36 35 33 32 30 29 29 31 34 35 36 37 37
28 28 29 29 28 28 28 26 25 24 24 24 24 24 24 25 25 25 25 25 25 25 26 26 27 26 26 26 26 27 27 27 26 25 26 26 27 27 28 29 29 30 31 31 32 32 32 32 32 32 32 33 33 34 34 35 35 36 36 37 37 38 39 39 39 39 39 39 39 37 36 36 35 33 32 32 30 31 32 32 34 35 35 35 33
29 29 30 30 29 30 30 29 28 26 25 25 25 25 25 26 26 27 27 27 26 26 26 27 27 27 27 27 27 28 28 26 25 26 27 27 28 29 29 30 30 31 32 32 32 32 32 32 32 32 32 33 33 33 34 35 35 36 36 37 37 38 39 39 39 39 38 38 38 36 36 36 35 32 32 32 31 32 32 32 34 34 33 31 29
29 30 30 31 31 31 32 32 31 29 27 27 26 26 26 27 27 28 28 29 28 28 28 28 28 28 28 28 28 28 28 26 25 26 27 27 28 29 30 31 32 32 33 34 34 34 34 34 34 33 33 33 33 34 35 35 36 36 37 37 37 38 38 39 38 38 37 37 37 36 36 35 34 32 31 31 31 32 33 33 33 32 31 29 27
29 30 31 31 32 32 33 33 34 32 30 28 27 27 28 29 28 28 28 29 29 30 30 29 29 28 28 29 28 28 28 27 26 26 27 28 28 29 30 32 32 33 34 35 35 35 35 36 36 36 35 34 35 36 37 37 36 37 37 37 38 38 38 38 37 36 35 36 36 36 35 34 33 32 31 31 32 32 33 33 31 30 29 28 26
31 32 32 32 32 32 33 34 35 35 33 31 29 29 29 29 29 29 29 29 30 31 31 30 30 29 29 29 29 29 28 27 27 27 27 29 29 30 31 32 33 34 34 35 36 36 36 36 36 36 35 35 35 36 37 37 37 37 37 38 39 39 38 37 36 36 35 35 36 35 34 33 32 31 30 31 32 33 33 32 30 29 30 30 29
33 34 34 34 33 32 33 34 35 35 35 33 32 31 31 30 30 30 29 29 30 31 31 31 31 30 30 29 29 29 29 28 27 27 28 29 30 31 33 34 34 35 35 36 36 36 36 36 36 35 35 35 35 35 35 35 36 36 37 38 39 39 38 37 36 35 35 34 34 33 32 32 31 30 31 32 33 33 32 31 30 31 32 31 29
35 35 35 35 34 33 32 33 34 34 35 34 33 32 32 31 31 30 30 30 31 31 31 31 31 31 30 30 30 30 29 28 28 28 28 29 30 32 34 34 34 35 35 35 36 36 36 36 36 35 35 34 34 34 33 33 34 36 37 38 38 38 37 37 36 34 33 33 33 32 31 31 30 30 31 32 32 32 31 31 32 31 30 29 30
35 35 35 35 35 34 33 32 33 33 34 34 34 33 32 32 31 30 30 31 31 31 31 31 30 30 30 31 31 31 29 28 28 28 28 29 30 32 34 34 35 35 36 35 35 36 36 36 35 36 35 35 34 33 33 33 34 36 37 38 38 37 37 37 36 33 32 32 32 31 30 30 30 31 32 32 32 32 31 32 32 29 29 30 32
35 34 34 35 35 35 34 33 33 33 33 34 34 33 32 31 31 30 30 31 30 30 30 31 31 31 31 30 30 31 30 28 27 28 27 28 30 32 33 34 35 36 36 36 35 35 36 35 35 35 35 34 33 32 32 33 35 36 37 37 37 37 37 37 35 32 31 31 31 30 30 30 31 32 33 33 33 32 30 31 31 30 31 32 32
33 33 34 34 35 36 36 35 34 33 33 33 33 33 32 31 31 31 31 31 30 29 29 30 31 31 30 30 29 30 30 29 27 27 27 28 29 31 33 34 35 36 36 36 35 35 35 35 34 34 35 34 33 32 33 34 35 36 36 36 36 36 36 36 34 31 31 31 31 30 31 31 31 32 33 32 31 30 30 31 31 32 34 35 34
32 33 33 33 34 36 36 35 34 34 33 33 32 32 32 32 32 32 32 31 30 30 29 30 32 31 30 29 29 30 31 30 28 27 28 28 29 31 32 34 36 36 36 36 36 36 36 35 34 34 33 33 33 33 33 34 35 36 36 35 35 36 35 34 32 31 31 31 31 31 31 31 31 32 32 32 31 31 31 31 31 31 33 35 35
31 32 33 33 34 35 35 34 35 34 33 33 33 32 32 32 32 33 32 32 31 31 30 31 32 32 29 29 29 30 31 30 28 28 29 29 29 30 32 34 35 35 36 36 36 36 36 35 34 33 32 33 33 33 34 34 35 36 36 35 35 34 33 32 31 31 31 31 31 31 30 30 31 31 32 31 31 32 32 31 31 31 32 33 34
31 32 34 35 35 35 35 35 35 35 34 33 33 33 33 32 32 32 33 33 32 31 31 31 33 32 30 29 29 30 30 31 29 28 28 29 29 30 32 33 33 34 36 37 37 37 36 34 33 32 32 32 33 34 34 34 35 36 35 34 33 32 32 32 32 31 30 30 30 30 30 30 30 31 31 31 31 32 32 31 31 31 31 32 33
30 32 34 36 36 36 36 36 36 36 35 34 34 34 33 32 32 32 33 33 33 32 31 32 33 32 30 29 29 29 30 30 30 29 28 29 29 29 31 32 32 33 36 37 38 37 36 34 33 32 32 33 34 35 34 34 35 36 34 32 32 32 32 32 31 30 30 29 29 29 29 29 29 30 31 31 32 31 31 31 31 31 32 33 33
30 32 33 35 36 36 37 37 37 36 35 35 35 35 33 32 31 31 32 33 33 33 32 32 32 32 31 30 30 29 29 30 30 29 29 29 28 29 30 31 32 34 35 37 37 36 35 34 33 32 33 34 35 34 33 33 33 33 32 31 31 32 32 31 30 29 29 28 29 29 29 29 30 30 31 31 31 31 30 31 31 31 32 34 35
30 31 32 33 34 35 36 37 37 36 35 35 35 34 33 31 31 31 31 32 33 33 32 31 31 31 31 31 30 29 28 29 29 28 28 27 27 28 29 31 32 34 35 36 36 36 35 34 33 33 33 34 34 33 32 31 31 32 32 32 32 32 31 29 29 28 28 29 29 29 30 30 30 31 30 30 30 30 31 31 32 32 33 35 36
31 31 31 32 32 33 35 36 36 35 34 34 34 33 32 31 31 31 31 32 32 32 31 30 29 30 30 31 30 29 28 28 28 28 27 27 26 27 28 30 31 32 33 35 35 35 35 34 34 34 33 33 33 32 32 31 31 31 32 32 31 31 30 29 29 29 29 29 29 30 30 30 31 31 30 30 30 30 31 32 33 34 35 35 36
31 31 31 31 31 32 34 35 35 34 33 33 33 32 30 29 30 30 30 30 30 29 28 27 27 29 29 28 28 28 27 28 28 27 26 26 26 27 28 29 30 31 32 34 35 34 34 33 33 33 33 33 32 32 31 31 31 31 31 31 31 31 30 30 29 29 29 29 29 30 30 30 30 30 29 30 30 30 31 32 34 35 35 36 37
31 32 32 32 32 32 32 33 34 33 32 32 32 30 28 28 29 29 28 27 27 26 25 25 25 26 26 26 27 29 30 30 28 26 25 26 28 28 29 30 30 31 32 33 32 32 31 31 32 33 33 32 32 32 31 31 31 31 31 31 31 30 30 30 29 29 29 29 29 30 30 29 29 29 29 30 30 30 31 32 33 34 35 35 37
31 32 32 32 32 32 32 32 33 32 32 31 30 29 27 27 27 27 25 23 23 23 23 23 23 24 25 27 29 31 32 31 28 26 26 27 28 29 29 30 30 31 31 31 30 30 30 31 32 33 32 32 32 32 31 31 31 31 31 30 30 29 29 29 29 29 28 28 29 30 29 29 29 29 29 30 31 31 31 32 33 34 34 35 36
33 33 31 32 32 31 31 32 32 32 33 32 30 28 26 25 26 25 23 21 21 21 21 22 24 25 28 30 30 31 32 31 29 28 29 28 28 29 29 29 30 30 30 30 29 29 30 31 32 32 32 32 31 31 30 30 30 30 30 29 28 28 28 28 28 28 28 29 29 29 29 29 29 29 30 31 31 31 32 32 33 34 34 35 36
36 35 33 32 31 31 31 32 31 32 32 32 30 29 26 25 24 24 22 20 19 20 22 24 25 27 29 31 30 30 31 30 30 29 30 29 29 28 28 29 30 30 30 29 29 29 30 30 31 31 31 31 30 29 29 29 29 29 28 27 27 27 27 28 28 28 29 29 29 29 29 29 29 30 31 31 32 32 32 33 33 34 34 35 36
37 36 34 33 32 30 31 31 31 31 32 31 30 29 27 25 24 23 21 20 20 21 23 24 26 27 28 30 30 30 30 30 30 30 30 29 28 27 27 28 28 28 28 27 27 28 30 30 30 31 30 30 29 28 28 28 28 27 27 27 27 27 27 27 28 28 29 29 28 28 28 29 30 30 31 32 32 33 33 33 34 34 34 35 36
37 37 35 34 32 31 31 30 30 31 31 31 30 29 28 27 25 22 21 21 22 23 24 25 26 26 27 28 29 30 30 29 29 30 29 28 27 26 26 27 27 26 27 27 28 29 29 30 30 30 30 29 29 28 27 27 27 27 27 27 27 26 26 27 28 28 28 28 28 28 28 29 29 30 31 32 32 33 33 34 34 34 34 35 35
37 36 35 34 33 32 31 30 30 30 30 30 29 28 28 27 26 24 23 23 23 24 24 25 25 25 26 27 28 29 30 29 29 29 28 27 26 25 25 25 25 25 26 27 28 29 29 29 29 29 29 28 28 27 26 26 26 27 27 26 26 25 26 26 27 27 27 28 28 28 28 28 29 30 31 32 32 33 34 34 34 34 34 34 35
36 36 35 34 33 33 31 30 29 30 29 29 28 27 27 27 26 26 25 25 25 25 25 25 25 25 27 28 28 29 29 29 29 28 27 26 25 24 24 25 26 25 25 27 28 27 27 27 27 27 27 27 26 26 26 26 26 26 26 26 25 25 26 26 26 26 27 27 27 28 28 29 29 30 31 31 32 33 34 34 34 34 34 34 35
36 35 34 33 33 33 32 30 29 28 28 28 27 27 27 27 28 27 26 26 27 28 27 26 26 27 28 29 29 29 29 29 28 28 27 26 24 23 24 25 25 25 25 27 27 25 25 25 24 24 24 24 24 25 26 26 26 26 25 25 25 25 26 26 26 26 27 27 27 28 28 29 29 29 30 31 32 33 34 34 34 34 34 34 36
35 34 33 32 32 32 32 31 29 28 28 28 27 27 28 29 29 29 28 28 29 29 29 28 28 28 29 30 30 30 30 29 28 27 26 25 23 22 23 24 23 22 22 23 23 23 23 22 22 22 22 23 24 25 25 25 26 26 25 26 26 25 25 26 26 26 27 27 27 28 28 28 29 29 29 31 32 33 34 34 34 35 35 35 36
33 32 32 31 31 31 31 31 29 28 28 28 28 28 29 29 30 30 31 31 31 31 31 31 30 30 31 31 30 30 29 28 28 28 27 25 23 22 22 21 20 19 19 20 20 21 22 22 22 22 23 24 24 25 25 25 25 25 26 26 25 25 25 25 25 26 26 27 27 28 28 28 29 28 30 31 32 33 33 34 34 36 36 37 38
31 31 31 31 31 31 31 30 30 29 29 28 28 28 29 30 30 31 31 31 32 32 32 32 32 32 32 32 31 30 29 28 28 27 26 24 22 21 20 19 18 18 19 19 20 21 22 23 23 23 23 24 24 24 25 25 25 25 25 25 25 25 24 25 25 26 27 27 28 28 28 29 29 29 31 32 32 33 34 34 35 37 38 39 39
30 30 31 31 31 30 30 30 30 30 29 29 28 28 29 30 30 30 31 31 32 33 33 33 33 32 32 31 30 29 29 28 27 25 24 23 21 20 19 19 18 18 19 19 20 22 22 22 22 22 23 23 23 24 24 24 25 25 25 25 25 24 24 24 25 26 27 28 28 29 29 30 30 31 32 32 32 33 34 36 37 38 39 39 40
29 29 30 30 30 30 29 28 28 28 27 28 28 28 29 30 30 31 32 32 33 33 33 33 32 31 31 30 29 28 27 27 26 25 23 21 20 19 19 18 18 18 19 19 20 20 21 21 21 21 22 22 23 23 23 24 24 25 24 24 24 24 24 24 25 26 27 28 29 30 31 31 31 32 32 33 33 34 35 37 38 38 39 40 40
30 30 30 30 30 30 29 28 27 27 26 27 28 28 29 30 31 32 32 33 33 32 32 32 31 30 30 28 27 26 26 26 25 23 20 19 19 19 19 19 19 19 19 19 19 19 19 20 21 21 22 22 22 23 23 24 24 24 24 24 24 24 24 25 26 26 27 29 30 31 32 31 31 32 33 33 33 34 36 37 38 39 39 39 39
31 31 31 30 30 30 29 29 28 27 27 28 28 29 29 30 30 31 31 31 30 30 30 31 30 29 28 27 26 25 24 23 22 20 18 18 19 19 19 20 20 19 19 18 18 19 19 20 21 21 22 22 22 23 23 23 24 24 24 24 24 24 25 25 26 27 29 30 31 32 32 32 32 33 33 33 34 35 36 37 38 38 38 38 38
32 32 31 31 31 30 29 29 29 28 28 28 29 29 29 29 30 30 30 30 29 29 29 29 29 28 27 25 23 22 20 19 18 17 17 18 19 20 20 20 18 18 17 17 18 19 20 20 21 22 22 22 23 23 23 23 23 24 24 24 24 25 25 26 27 28 30 31 33 33 34 34 34 34 34 34 34 35 36 37 37 37 37 37 37
31 32 31 31 31 30 29 29 29 29 29 29 29 29 29 29 30 29 29 29 28 28 27 27 26 25 24 21 19 17 16 16 16 16 16 17 18 19 18 18 17 17 17 18 19 20 20 20 21 21 22 22 22 22 22 23 23 23 24 24 24 25 25 26 27 29 31 32 33 34 35 36 36 35 34 34 34 35 35 36 36 35 36 36 35
31 31 32 32 31 30 30 29 29 29 29 29 30 30 29 29 29 28 28 27 26 25 24 23 22 21 19 17 16 15 15 15 15 15 15 15 16 15 16 16 16 17 18 19 19 19 19 20 20 20 20 21 21 21 22 22 22 23 24 24 25 26 26 27 29 30 31 32 34 35 36 36 36 35 34 33 33 34 34 34 34 34 35 35 34
31 32 32 32 32 31 31 30 30 30 29 29 29 29 28 28 27 26 25 25 23 22 21 20 18 17 16 15 15 14 14 13 13 12 12 12 12 13 15 16 17 18 18 18 18 19 19 19 19 19 20 20 20 21 21 22 23 24 24 25 26 27 27 28 30 30 31 32 33 34 34 35 35 34 33 32 32 33 33 33 33 33 34 34 34
32 33 33 33 33 32 32 31 30 29 29 29 29 28 27 26 25 24 23 22 21 20 18 17 16 15 14 13 12 12 11 10 10 10 10 11 12 14 15 16 16 17 17 17 18 18 18 18 18 19 19 20 20 21 22 23 24 25 25 26 27 27 28 29 30 30 30 31 32 32 33 33 33 33 32 31 31 32 32 32 32 33 34 34 35
33 33 33 33 33 32 32 31 30 30 29 29 28 26 25 24 23 22 21 19 18 17 15 14 12 11 10 10 9 9 8 8 9 9 10 11 13 14 14 15 16 16 16 16 17 17 17 18 18 18 19 19 20 21 22 23 24 25 25 26 27 27 28 28 28 28 29 29 30 30 31 31 31 31 31 30 30 31 31 31 32 33 34 35 35
33 33 32 32 32 32 31 30 30 29 28 27 25 24 22 21 20 18 17 15 14 12 11 9 9 8 8 8 7 7 8 8 9 10 11 12 12 13 14 14 15 15 15 16 16 17 17 17 18 18 19 20 21 22 23 23 24 24 25 25 25 26 26 26 27 26 26 27 28 28 29 29 30 30 30 31 32 32 32 32 33 33 34 35 35
33 32 31 31 31 30 29 28 27 26 25 23 22 20 19 17 16 14 13 11 9 8 8 7 7 7 7 7 7 7 8 9 9 10 11 11 12 13 13 14 14 15 15 16 17 17 17 18 18 19 20 21 22 23 23 24 24 24 24 24 24 24 24 24 25 24 25 25 26 27 28 29 29 30 31 31 32 32 33 33 33 33 33 34 34
Wind_Direction
319 317 317 319 318 314 308 301 298 296 294 291 289 283 275 271 268 265 265 263 261 262 262 262 264 263 262 263 264 265 264 264 263 261 260 258 256 254 252 249 247 245 244 242 242 243 243 243 244 246 249 250 251 252 254 258 263 266 272 278 282 286 290 291 291 293 296 298 300 302 303 305 308 310 310 310 311 312 312 312 311 310 309 308 307
315 315 314 313 313 312 309 305 299 296 295 294 294 293 286 279 273 269 268 267 265 265 264 264 265 265 264 264 263 263 263 263 264 263 262 262 261 261 258 256 254 252 250 249 247 247 247 247 246 249 253 254 256 258 261 264 268 272 276 281 284 287 290 292 292 293 294 297 299 300 302 304 306 308 308 308 309 309 310 310 309 309 310 309 308
308 310 311 311 309 307 307 306 303 298 295 294 293 293 291 284 278 274 273 270 268 268 266 266 266 266 266 266 266 265 265 265 265 264 264 264 265 265 264 263 262 261 260 258 256 254 254 253 251 252 256 259 260 261 263 265 268 273 277 281 284 286 289 291 290 289 291 293 295 297 299 302 304 306 308 307 307 308 308 308 308 308 308 308 309
306 306 306 307 306 306 304 303 302 300 298 294 291 289 288 285 281 280 279 277 274 273 271 269 268 268 268 269 268 268 267 266 266 266 266 266 266 266 266 266 265 265 265 264 262 261 260 260 259 257 258 261 264 265 265 267 270 274 278 280 282 285 286 287 288 288 288 289 291 294 297 299 301 304 306 306 306 307 307 307 307 308 308 308 309
304 306 305 304 302 302 302 301 299 298 296 294 290 287 285 284 283 283 283 283 282 280 277 275 273 273 273 273 272 271 270 268 267 267 267 267 266 266 266 266 266 266 266 266 265 264 264 265 265 263 262 263 266 268 269 271 273 275 278 279 282 284 285 285 286 287 287 288 290 292 294 296 299 302 303 303 303 304 305 306 307 308 309 310 312
297 301 303 304 302 298 297 297 298 296 292 289 289 287 284 283 282 283 283 283 282 281 281 280 279 279 279 278 277 276 274 272 270 269 269 268 267 266 266 266 266 266 267 266 266 266 266 267 268 267 266 266 268 270 272 274 275 276 277 279 280 282 283 283 284 286 286 287 289 290 291 293 296 299 301 301 301 302 303 304 306 308 310 312 313
291 293 296 299 302 301 298 294 294 294 291 287 285 284 285 284 282 281 281 280 280 280 280 280 280 280 279 279 279 278 277 276 274 274 273 271 271 270 269 268 268 268 268 268 267 267 267 267 268 267 267 268 269 271 273 274 275 276 276 277 278 279 281 282 283 284 284 285 286 288 289 291 293 296 297 298 298 299 301 303 305 308 310 311 311
287 289 291 293 297 301 302 296 290 289 290 289 286 284 284 283 282 281 278 278 278 279 279 278 278 277 277 277 278 278 278 277 278 278 278 276 275 274 273 272 272 272 272 271 269 269 268 268 268 268 268 268 269 270 271 272 273 274 275 276 276 278 279 280 281 282 283 284 285 286 288 289 290 292 294 294 296 298 300 301 303 306 308 309 310
286 286 287 289 293 298 300 298 292 289 287 288 288 286 283 281 280 279 278 278 278 278 277 277 276 276 276 277 277 276 276 277 278 280 280 279 278 278 277 276 274 274 274 273 272 271 271 270 270 270 270 270 270 270 270 270 270 271 273 275 276 277 278 278 279 280 281 282 283 284 285 286 287 288 289 290 291 293 296 298 302 305 308 308 309
289 287 287 289 293 294 296 296 294 290 287 286 286 286 284 282 279 278 278 277 276 276 276 276 276 277 277 278 277 276 276 276 278 279 278 278 278 277 277 276 276 275 275 274 274 274 273 273 273 274 273 272 272 271 271 270 270 271 272 273 274 276 277 277 277 278 279 279 280 281 281 282 284 284 284 286 288 291 296 299 302 304 306 307 307
292 291 291 292 293 292 293 295 294 292 289 286 284 284 283 282 279 278 277 277 276 276 276 276 277 277 278 278 278 277 278 279 280 279 278 277 277 276 276 276 275 275 274 274 274 275 275 275 275 274 274 274 274 274 274 273 272 272 272 273 273 274 275 275 276 277 277 277 278 279 279 280 281 280 281 285 288 292 296 299 301 303 303 302 301
293 293 292 292 292 291 292 293 293 293 291 288 285 284 282 280 278 277 276 275 276 275 274 275 276 276 277 278 278 279 281 282 282 280 279 279 277 276 276 276 275 275 275 274 274 275 275 275 275 275 275 275 276 276 275 275 275 275 275 275 275 274 273 273 273 274 275 276 277 277 277 278 278 278 281 285 288 292 296 297 299 300 299 297 295
292 292 293 292 291 291 291 291 292 293 294 292 287 283 280 278 278 277 276 275 273 272 273 274 275 276 276 277 279 280 281 282 282 281 281 281 280 278 277 277 277 277 276 276 276 276 276 276 276 276 277 277 277 277 277 277 278 277 277 276 276 275 274 273 272 272 272 272 273 274 275 275 275 277 281 285 289 293 295 296 297 296 295 292 290
290 291 292 293 292 291 291 290 291 292 293 293 289 284 279 278 277 277 276 275 273 271 272 273 274 275 275 276 278 278 279 280 281 281 280 280 280 279 278 278 278 278 279 279 278 278 277 277 278 278 279 279 278 278 278 279 279 278 278 277 276 275 275 274 273 272 270 268 269 271 273 273 274 278 282 286 289 292 293 293 293 292 292 291 290
290 290 290 293 294 293 292 290 290 291 291 292 290 285 281 278 277 276 275 275 274 273 272 271 272 275 276 276 277 276 277 278 278 278 277 277 277 277 276 277 277 278 279 280 280 280 279 279 279 279 280 280 280 280 280 279 279 278 277 276 276 275 275 275 274 271 270 270 270 271 271 272 275 279 282 286 288 290 291 290 290 292 293 293 291
290 291 290 292 293 294 293 291 289 289 289 288 287 285 282 280 278 277 276 274 273 273 273 272 273 275 276 275 275 275 277 278 277 277 276 276 275 274 274 275 276 277 278 278 279 280 280 279 279 280 279 279 279 280 280 279 278 277 276 276 275 275 275 275 273 272 272 272 272 272 271 273 276 279 282 285 287 289 290 290 291 292 291 287 285
289 291 292 292 292 291 290 288 286 285 284 284 285 285 284 282 280 279 277 275 274 273 274 274 274 274 273 274 274 276 279 279 278 278 277 276 275 274 274 275 276 277 277 278 278 279 279 279 279 279 278 277 278 279 278 277 275 274 275 274 274 274 274 273 273 272 271 271 270 270 270 272 275 278 281 285 287 289 289 288 289 289 286 284 286
288 289 290 290 290 289 287 285 285 284 283 283 284 285 285 283 281 280 278 277 275 274 274 274 273 273 273 274 275 277 279 280 279 279 278 277 275 274 274 275 275 276 277 277 278 278 279 279 278 278 278 278 278 278 276 273 272 271 272 272 272 272 272 272 272 272 270 268 268 268 270 272 276 279 282 286 288 290 289 288 289 289 287 287 289
292 290 288 287 286 286 286 285 284 283 283 284 284 285 284 283 281 279 278 277 276 276 275 275 274 274 274 275 276 277 278 279 279 278 279 277 275 275 274 274 275 276 277 278 279 279 279 279 278 277 278 278 277 276 273 271 270 270 270 270 271 270 270 271 272 271 267 266 266 268 270 274 278 281 285 288 289 291 290 290 290 289 287 288 289
294 291 289 287 285 284 284 284 283 282 283 284 284 283 282 281 280 278 278 278 277 276 276 275 275 275 275 276 277 277 278 278 277 277 277 277 275 274 273 273 274 276 277 278 278 278 278 278 278 278 278 278 277 275 273 272 270 270 270 270 269 268 269 270 269 267 265 264 266 269 273 277 281 284 287 290 292 292 291 290 288 287 287 288 290
293 290 288 287 285 283 283 283 282 282 282 283 283 282 281 279 278 278 277 277 276 276 276 276 276 276 276 276 277 276 277 277 276 275 274 274 273 273 272 273 275 276 277 277 276 277 278 279 280 280 279 278 276 274 272 271 269 269 270 269 267 267 267 267 264 262 263 265 268 271 275 279 283 286 289 291 291 291 289 288 287 286 286 287 288
292 290 289 288 286 284 283 282 282 282 282 282 282 281 280 279 277 276 276 275 275 275 276 275 275 276 276 276 275 276 277 277 276 275 273 273 272 271 271 273 275 275 274 274 276 277 279 280 281 280 278 277 274 272 271 270 269 269 268 267 266 265 263 262 262 262 264 266 270 274 278 282 285 287 289 290 289 288 287 286 286 285 286 286 285
293 291 290 289 288 286 285 284 283 283 283 283 282 281 280 279 277 276 274 274 274 273 273 274 274 276 277 275 275 276 277 277 278 276 275 274 272 270 271 272 273 273 273 274 276 278 279 280 279 278 277 275 273 271 271 269 267 267 267 265 263 262 260 261 263 265 267 270 274 278 282 285 286 287 287 287 287 287 286 286 286 287 287 287 286
294 291 291 290 289 288 287 285 285 284 284 284 282 281 281 279 277 275 274 272 272 271 272 273 274 276 278 277 277 277 278 280 281 279 277 275 272 271 271 272 273 273 273 274 276 278 278 278 277 276 275 273 272 271 270 267 265 265 265 263 260 260 261 263 265 267 270 274 279 282 283 285 285 285 285 286 286 287 287 287 288 288 288 288 288
295 294 293 291 290 290 288 287 287 286 286 285 283 282 282 279 276 274 272 270 270 270 271 273 274 276 278 278 279 281 283 284 283 281 279 276 273 272 272 272 273 273 272 273 275 276 276 276 275 273 272 271 270 269 266 263 261 261 261 260 260 262 263 265 266 269 273 277 279 281 283 284 285 284 284 285 287 288 289 289 289 290 289 289 290
297 296 294 293 291 289 288 287 288 288 287 286 284 283 282 279 274 272 270 268 268 269 270 272 274 275 276 278 283 287 288 286 284 282 280 277 275 273 273 272 272 272 271 272 273 273 273 272 272 271 270 268 267 265 263 262 260 258 258 259 261 263 264 265 268 272 275 278 279 281 282 283 284 284 285 286 287 289 290 291 292 292 292 292 293
299 297 294 293 290 288 287 287 287 288 287 285 284 283 281 278 274 271 269 267 267 268 270 272 273 274 278 283 288 289 287 284 282 281 278 275 274 273 271 271 270 270 270 270 271 272 272 271 270 269 267 265 263 262 261 259 257 256 257 258 260 262 263 266 270 274 276 278 279 280 281 282 283 284 285 286 287 289 291 292 293 294 295 295 295
299 297 295 293 290 287 286 286 286 287 286 284 283 282 279 276 273 270 270 269 268 269 270 272 274 277 282 286 287 285 284 283 282 279 276 275 275 274 273 272 271 270 270 270 270 271 270 268 267 265 263 261 259 257 256 254 254 255 257 258 260 262 264 269 273 275 277 278 279 280 281 282 282 284 285 287 289 291 292 292 293 294 295 295 295
300 298 296 294 291 289 286 285 285 285 284 283 282 280 277 274 272 272 270 268 266 267 268 271 275 278 281 283 283 284 285 285 285 282 280 279 278 277 277 275 273 271 270 269 268 266 265 264 263 261 259 257 255 253 253 253 254 256 257 258 260 263 268 272 275 277 278 279 279 281 282 283 284 286 287 289 291 292 293 293 294 294 295 296 297
303 301 300 297 294 290 287 285 285 284 283 283 282 279 276 273 272 271 268 264 263 264 267 272 277 280 281 282 283 284 285 287 287 286 284 283 280 278 277 274 273 271 269 267 264 262 261 261 260 258 257 255 254 253 254 255 256 257 259 260 263 267 272 275 277 279 279 280 281 282 283 285 287 288 290 291 292 293 294 294 295 295 296 298 298
306 305 304 300 297 293 289 287 286 284 283 283 282 279 277 273 270 268 266 262 262 265 269 274 278 280 281 282 283 284 285 287 288 287 286 284 281 279 277 275 273 272 269 267 264 261 260 259 257 257 256 255 255 256 257 258 259 260 262 264 268 272 275 277 278 279 279 279 281 282 283 286 288 290 291 292 293 294 295 295 296 296 298 298 298
309 307 306 302 299 296 292 289 288 286 284 283 282 280 278 275 269 264 263 263 264 267 271 274 276 277 279 281 283 285 286 287 287 286 285 284 282 281 279 276 274 272 269 265 261 259 258 257 256 255 255 255 256 257 258 260 262 262 264 267 271 274 276 276 277 277 277 278 279 281 283 285 287 289 291 292 294 295 296 296 297 298 298 298 298
311 308 306 303 300 297 294 291 290 287 285 284 282 279 278 276 271 266 263 264 266 267 269 271 273 274 277 279 282 284 285 285 285 284 283 283 283 281 279 276 273 269 265 261 258 257 256 255 254 255 256 256 257 258 259 260 260 261 263 268 271 273 273 273 274 275 276 277 278 280 282 285 287 289 291 292 294 295 295 296 297 297 297 298 298
312 310 307 303 298 296 295 293 291 288 286 285 283 280 278 276 274 271 267 266 267 268 269 271 273 275 277 279 280 282 283 283 283 282 282 281 281 279 276 274 271 266 262 260 259 257 255 254 254 254 255 256 257 258 257 256 257 260 264 268 270 270 271 271 272 273 274 276 278 280 283 285 287 289 291 292 293 294 294 295 296 297 297 298 299
313 313 310 305 299 297 296 294 291 288 286 284 283 281 279 277 273 270 267 266 268 270 272 273 275 276 278 279 280 281 282 282 282 282 281 279 278 276 273 270 267 261 257 256 257 256 254 254 254 254 255 256 256 256 255 256 260 264 267 269 270 270 271 272 273 273 274 276 279 282 285 286 288 289 290 291 292 293 294 294 295 296 296 297 299
313 313 313 310 305 301 299 295 292 288 285 283 282 279 277 274 271 268 265 266 269 272 274 275 277 278 279 281 282 282 282 281 281 281 280 278 277 274 270 267 266 263 258 256 257 258 257 256 255 255 255 256 255 256 258 262 266 268 269 270 271 271 272 273 273 274 276 278 280 283 284 286 287 288 289 291 292 292 293 293 294 295 295 296 298
312 314 316 315 310 305 301 298 294 289 285 282 279 277 275 274 272 269 266 266 269 272 275 275 277 278 280 281 282 282 280 279 280 279 277 275 272 268 267 267 267 265 261 259 259 260 258 257 256 255 255 255 257 260 264 267 269 270 270 270 271 271 272 273 273 275 277 279 282 283 284 285 287 288 289 290 291 291 292 293 294 295 296 297 297
311 313 315 315 312 307 304 302 297 292 287 283 280 278 277 275 274 272 269 269 271 273 274 275 275 277 279 281 281 280 278 277 277 276 273 271 266 264 266 267 265 262 261 259 257 256 255 254 254 254 256 259 262 265 267 269 270 270 271 271 272 272 273 274 275 277 280 282 284 285 286 287 288 289 289 289 290 291 292 293 293 295 296 297 298
309 311 313 314 312 309 306 304 300 297 293 288 284 281 278 276 275 274 273 273 274 275 275 276 276 277 279 280 279 277 276 275 274 272 270 268 266 265 265 265 261 259 258 255 252 251 251 252 253 256 259 262 265 268 269 270 271 272 272 273 273 274 275 277 279 281 284 285 286 287 288 289 290 289 289 289 290 292 292 293 293 295 296 297 298
307 310 312 312 312 310 308 306 304 302 299 295 289 284 281 278 276 276 275 275 275 275 276 277 277 277 278 278 277 276 274 273 271 268 265 263 263 262 260 258 256 256 255 252 251 251 251 252 255 259 263 266 269 271 272 273 274 274 274 274 275 276 278 280 282 284 286 287 288 289 290 290 290 289 289 290 292 293 293 293 295 295 296 298 299
305 307 309 310 310 309 308 307 306 304 301 297 293 288 285 282 281 280 279 278 277 277 277 278 278 278 278 277 276 274 271 268 266 264 262 260 259 257 255 253 252 252 251 250 249 250 252 255 260 265 268 270 272 272 273 274 275 275 276 276 277 279 281 282 284 286 288 289 289 289 289 290 290 290 291 292 293 294 294 295 296 297 298 299 300
302 302 304 306 305 305 305 305 304 301 298 295 292 289 286 284 282 281 281 280 280 280 280 280 280 280 279 277 274 270 267 265 264 262 260 258 255 253 251 249 248 248 249 249 250 252 256 261 266 268 270 271 272 273 274 275 275 275 277 278 279 282 283 285 287 288 289 289 289 289 290 291 291 292 293 294 294 295 296 296 297 298 299 300 301
299 299 300 300 299 300 301 301 300 298 295 294 292 289 287 284 283 282 281 281 281 281 281 281 281 280 278 276 272 268 266 264 263 261 257 253 250 248 247 247 248 249 250 251 254 258 262 265 268 269 270 272 272 273 273 274 274 276 277 279 281 283 285 287 289 290 290 290 291 292 293 294 294 294 295 296 296 296 297 297 298 299 299 300 301
297 298 298 296 296 296 296 296 295 294 294 293 292 290 288 286 283 282 281 280 280 280 280 280 280 279 277 276 273 270 267 264 263 259 253 247 245 244 245 247 249 251 253 256 259 263 265 267 269 271 272 272 273 273 273 274 275 276 277 279 282 284 286 288 289 291 292 293 294 295 296 296 296 296 296 297 298 297 297 297 298 299 300 300 301
297 298 297 295 294 293 293 293 292 292 292 292 292 291 289 287 284 283 282 281 280 280 279 279 279 278 277 275 272 268 264 260 256 251 245 241 241 243 245 248 251 254 258 261 264 266 269 271 272 273 274 274 274 274 275 275 276 278 280 282 285 287 289 290 291 292 293 294 295 295 296 295 296 297 298 298 299 298 298 299 299 300 300 301 301
297 297 296 295 293 292 291 291 291 290 291 291 291 290 289 287 285 285 283 282 282 281 280 279 278 276 274 271 266 261 256 251 247 242 239 238 239 242 246 251 255 259 263 266 269 270 273 275 275 276 277 277 277 278 279 279 281 283 285 288 290 291 293 293 293 293 294 294 294 294 294 294 296 297 298 299 299 299 299 300 301 301 301 303 304
297 296 295 294 293 292 292 292 291 290 290 290 290 289 288 287 285 284 283 282 281 280 278 275 272 270 267 262 256 251 246 242 239 236 235 237 241 247 253 258 262 266 269 271 274 276 278 279 280 280 281 281 282 283 284 285 287 289 291 292 293 293 293 293 293 293 294 293 293 293 294 295 297 299 300 301 301 301 301 302 302 303 305 306 308
295 295 294 293 292 292 292 291 290 290 289 289 289 288 287 286 285 283 282 280 277 274 271 267 264 261 256 249 244 240 235 234 234 236 241 247 252 257 262 266 269 272 275 277 280 282 283 284 284 285 285 285 285 286 287 289 290 292 293 293 293 293 293 293 293 294 294 294 294 295 296 297 299 301 303 303 303 303 303 304 304 306 308 308 308
293 292 291 291 290 290 290 289 289 289 288 288 288 288 287 286 284 281 278 275 271 267 263 257 252 246 238 232 231 231 232 237 242 247 252 259 263 266 270 273 276 278 281 282 284 285 286 286 286 286 286 287 288 289 290 292 292 293 294 294 294 295 295 295 296 297 297 297 298 298 299 300 302 303 304 305 305 305 306 307 307 308 307 306 307
292 291 291 291 290 290 289 289 289 289 288 288 287 286 284 282 280 276 272 267 262 255 247 238 230 225 222 224 230 236 242 248 254 258 262 268 271 274 277 280 281 283 285 286 287 288 288 288 289 290 291 292 293 294 294 295 295 295 296 296 296 297 297 297 297 298 298 298 298 299 300 302 304 305 307 308 308 308 308 307 307 306 305 306 307
293 293 293 292 291 290 290 290 289 289 288 287 285 283 280 277 273 267 260 252 242 231 223 217 216 218 224 231 239 247 253 257 262 267 271 275 277 280 282 284 285 288 289 291 292 293 294 294 295 296 297 298 298 298 298 299 299 299 300 300 299 299 298 297 296 297 298 299 300 301 303 305 306 307 308 308 307 306 305 304 304 305 306 307 308
Height
1539 1538 1537 1536 1535 1535 1534 1533 1532 1531 1530 1529 1529 1528 1528 1528 1527 1527 1527 1526 1526 1526 1525 1525 1525 1524 1524 1523 1523 1522 1521 1521 1521 1520 1520 1519 1519 1518 1518 1517 1517 1517 1516 1516 1516 1516 1515 1515 1515 1515 1515 1514 1514 1514 1514 1514 1513 1513 1512 1512 1511 1510 1510 1509 1507 1506 1505 1505 1504 1503 1502 1501 1500 1500 1498 1496 1495 1493 1492 1490 1488 1487 1485 1484 1482
1538 1537 1536 1534 1534 1533 1532 1531 1530 1530 1529 1528 1527 1527 1526 1525 1525 1524 1524 1524 1524 1524 1523 1523 1523 1522 1522 1522 1521 1521 1520 1520 1519 1519 1519 1518 1518 1517 1516 1516 1515 1515 1515 1515 1514 1514 1514 1514 1514 1514 1513 1513 1513 1512 1512 1512 1511 1511 1510 1510 1509 1508 1507 1507 1505 1503 1502 1502 1502 1500 1499 1498 1497 1497 1495 1492 1491 1490 1488 1486 1484 1483 1481 1480 1478
1536 1535 1534 1533 1532 1531 1530 1530 1529 1528 1528 1527 1526 1525 1524 1524 1523 1522 1522 1521 1521 1521 1521 1521 1520 1520 1520 1519 1519 1519 1518 1518 1518 1517 1517 1516 1516 1515 1515 1514 1514 1513 1513 1513 1512 1512 1512 1512 1512 1512 1512 1511 1511 1510 1510 1510 1509 1509 1508 1507 1506 1506 1505 1504 1503 1501 1499 1498 1498 1497 1496 1495 1493 1492 1491 1489 1487 1486 1484 1482 1481 1479 1477 1476 1474
1534 1533 1532 1531 1530 1529 1528 1527 1526 1526 1526 1525 1525 1524 1523 1522 1521 1520 1520 1519 1519 1518 1518 1518 1518 1517 1517 1517 1517 1517 1516 1516 1515 1515 1515 1514 1514 1513 1513 1512 1512 1512 1511 1511 1511 1510 1509 1509 1510 1510 1510 1509 1508 1508 1507 1507 1507 1506 1505 1504 1503 1503 1503 1501 1500 1499 1497 1495 1494 1493 1492 1491 1490 1489 1487 1485 1483 1481 1480 1478 1476 1475 1474 1472 1470
1532 1531 1530 1529 1528 1527 1526 1524 1523 1522 1522 1521 1521 1521 1521 1521 1520 1519 1518 1517 1517 1516 1515 1515 1514 1514 1514 1514 1514 1514 1513 1513 1513 1512 1512 1512 1512 1511 1511 1510 1510 1509 1509 1509 1509 1508 1507 1507 1507 1507 1507 1506 1505 1505 1505 1504 1504 1503 1502 1502 1501 1500 1499 1498 1497 1495 1493 1491 1490 1489 1488 1486 1485 1485 1484 1482 1480 1478 1476 1474 1472 1470 1469 1468 1466
1529 1528 1527 1526 1525 1524 1523 1522 1521 1519 1518 1517 1517 1517 1517 1517 1517 1517 1516 1515 1514 1513 1513 1512 1512 1511 1511 1511 1511 1510 1510 1510 1509 1509 1509 1509 1509 1508 1508 1508 1507 1507 1506 1506 1506 1505 1505 1504 1504 1504 1504 1503 1502 1502 1502 1501 1501 1501 1500 1499 1498 1497 1496 1495 1494 1492 1490 1488 1486 1485 1484 1482 1481 1480 1479 1478 1476 1474 1472 1471 1469 1467 1465 1463 1462
1526 1525 1524 1522 1522 1521 1520 1519 1518 1517 1515 1514 1513 1512 1512 1512 1512 1513 1513 1512 1511 1511 1510 1509 1509 1508 1508 1508 1507 1507 1507 1506 1506 1506 1506 1506 1505 1505 1505 1504 1504 1504 1503 1503 1503 1502 1502 1501 1501 1501 1500 1499 1499 1499 1499 1498 1498 1497 1497 1496 1495 1494 1493 1491 1490 1488 1486 1484 1483 1481 1480 1478 1477 1475 1475 1473 1472 1470 1469 1466 1465 1464 1462 1460 1458
1523 1522 1521 1519 1518 1518 1517 1516 1515 1514 1513 1512 1511 1509 1508 1507 1507 1508 1508 1508 1508 1507 1507 1506 1505 1505 1505 1504 1504 1504 1503 1503 1503 1503 1502 1502 1502 1501 1501 1501 1500 1500 1500 1499 1499 1498 1498 1498 1497 1497 1496 1496 1496 1496 1495 1495 1494 1493 1493 1492 1491 1490 1489 1487 1486 1484 1482 1481 1479 1478 1476 1475 1473 1471 1470 1469 1467 1466 1465 1462 1460 1460 1458 1456 1454
1520 1518 1517 1516 1516 1515 1514 1513 1512 1511 1510 1509 1508 1507 1506 1504 1503 1503 1502 1503 1503 1503 1503 1503 1502 1501 1501 1501 1500 1500 1499 1499 1500 1500 1499 1499 1499 1498 1498 1497 1497 1496 1496 1495 1495 1494 1494 1493 1493 1492 1492 1492 1492 1491 1491 1491 1490 1488 1488 1487 1486 1485 1484 1483 1481 1480 1478 1477 1475 1474 1473 1471 1469 1468 1467 1465 1463 1462 1461 1459 1457 1455 1454 1452 1450
1516 1515 1515 1514 1513 1512 1511 1509 1509 1507 1506 1506 1505 1504 1503 1502 1500 1499 1498 1498 1498 1498 1498 1498 1498 1497 1497 1497 1496 1496 1495 1496 1496 1497 1496 1496 1495 1495 1494 1494 1493 1492 1492 1491 1490 1490 1489 1489 1488 1488 1488 1487 1487 1486 1486 1485 1485 1484 1483 1483 1482 1480 1479 1478 1477 1476 1475 1473 1471 1471 1469 1467 1466 1465 1463 1462 1461 1459 1457 1456 1453 1452 1450 1448 1446
1513 1512 1512 1511 1510 1509 1507 1506 1505 1504 1503 1502 1501 1500 1500 1498 1497 1496 1494 1494 1493 1493 1493 1493 1493 1493 1493 1492 1492 1491 1491 1492 1493 1493 1492 1492 1492 1491 1490 1490 1489 1489 1488 1487 1486 1486 1485 1484 1484 1484 1483 1483 1482 1481 1481 1480 1479 1479 1478 1478 1477 1476 1474 1473 1472 1471 1470 1469 1468 1467 1465 1463 1463 1462 1460 1459 1458 1456 1454 1452 1450 1449 1447 1445 1443
1510 1509 1509 1508 1507 1506 1504 1503 1502 1500 1500 1498 1497 1496 1495 1494 1494 1493 1491 1490 1489 1489 1488 1488 1488 1488 1488 1488 1487 1486 1486 1487 1488 1488 1488 1488 1488 1487 1486 1486 1485 1484 1484 1483 1482 1482 1481 1480 1479 1479 1479 1478 1478 1477 1476 1475 1475 1474 1473 1472 1472 1471 1470 1468 1467 1467 1466 1465 1464 1463 1461 1460 1459 1458 1457 1456 1454 1453 1451 1449 1447 1446 1444 1442 1440
1506 1504 1504 1503 1503 1502 1501 1500 1498 1497 1496 1495 1493 1492 1490 1489 1489 1489 1488 1487 1486 1485 1484 1484 1483 1483 1483 1483 1483 1482 1482 1483 1484 1484 1483 1483 1483 1483 1482 1481 1480 1480 1479 1479 1478 1478 1477 1476 1475 1474 1474 1474 1473 1472 1471 1470 1470 1469 1468 1467 1466 1465 1464 1464 1463 1462 1462 1460 1459 1458 1458 1457 1456 1455 1453 1452 1451 1449 1448 1446 1444 1442 1440 1439 1437
1501 1500 1498 1497 1497 1497 1497 1496 1494 1493 1492 1491 1489 1488 1486 1485 1485 1484 1484 1483 1482 1481 1480 1480 1479 1479 1479 1479 1479 1478 1478 1478 1479 1479 1479 1479 1478 1478 1476 1476 1475 1475 1474 1474 1473 1473 1472 1471 1470 1470 1470 1469 1469 1468 1467 1466 1465 1464 1463 1462 1460 1459 1459 1459 1458 1458 1457 1456 1454 1454 1454 1453 1452 1451 1450 1449 1447 1446 1445 1443 1441 1439 1436 1435 1433
1497 1495 1493 1492 1492 1491 1491 1490 1489 1488 1487 1486 1485 1483 1481 1480 1480 1479 1479 1479 1478 1477 1477 1476 1475 1475 1475 1474 1474 1474 1474 1474 1475 1474 1474 1474 1473 1472 1471 1470 1470 1470 1469 1469 1468 1468 1468 1467 1466 1465 1465 1465 1464 1463 1463 1462 1461 1459 1458 1457 1455 1455 1454 1454 1454 1453 1452 1451 1450 1450 1450 1449 1448 1448 1447 1446 1444 1443 1441 1439 1437 1435 1432 1431 1429
1493 1491 1490 1488 1487 1486 1485 1484 1483 1482 1482 1481 1479 1478 1476 1476 1475 1475 1474 1474 1473 1473 1472 1472 1471 1471 1471 1470 1469 1469 1469 1470 1470 1470 1470 1469 1468 1467 1466 1465 1465 1464 1464 1464 1463 1463 1463 1462 1461 1460 1460 1459 1459 1458 1458 1457 1456 1454 1453 1452 1450 1450 1449 1449 1448 1448 1447 1447 1446 1445 1445 1444 1444 1443 1443 1442 1441 1439 1437 1435 1433 1432 1429 1427 1425
1489 1488 1486 1484 1482 1481 1479 1477 1476 1476 1475 1475 1473 1473 1472 1470 1470 1470 1468 1468 1468 1468 1467 1467 1467 1466 1466 1465 1464 1464 1465 1465 1465 1465 1465 1464 1463 1462 1460 1460 1459 1458 1458 1458 1458 1458 1457 1457 1456 1455 1454 1454 1454 1453 1453 1452 1450 1448 1447 1446 1445 1444 1444 1443 1443 1444 1443 1442 1441 1440 1440 1440 1440 1439 1439 1438 1437 1435 1434 1432 1431 1430 1427 1424 1421
1485 1484 1482 1480 1478 1476 1474 1472 1470 1469 1469 1469 1468 1467 1466 1465 1464 1464 1463 1462 1462 1462 1463 1462 1462 1461 1460 1460 1460 1459 1459 1460 1460 1459 1459 1459 1457 1456 1455 1454 1453 1452 1452 1452 1452 1452 1452 1452 1451 1450 1449 1448 1449 1448 1447 1446 1444 1443 1442 1441 1440 1439 1439 1438 1439 1439 1438 1437 1437 1436 1436 1436 1436 1435 1434 1434 1433 1432 1431 1429 1428 1426 1423 1421 1418
1481 1479 1477 1475 1473 1471 1469 1468 1465 1464 1463 1462 1462 1462 1461 1460 1459 1458 1457 1457 1457 1457 1457 1456 1456 1456 1456 1455 1455 1454 1453 1454 1455 1454 1453 1453 1452 1450 1449 1448 1447 1446 1446 1446 1446 1446 1445 1445 1445 1444 1444 1443 1443 1443 1442 1440 1439 1438 1437 1436 1435 1434 1433 1433 1434 1434 1433 1433 1432 1432 1432 1432 1432 1431 1430 1430 1429 1428 1427 1426 1424 1422 1420 1417 1416
1475 1473 1471 1469 1468 1466 1465 1463 1461 1460 1458 1457 1457 1457 1456 1455 1454 1453 1452 1452 1451 1451 1452 1451 1450 1450 1450 1450 1449 1448 1448 1448 1449 1448 1447 1447 1446 1444 1443 1442 1441 1440 1440 1440 1439 1439 1439 1439 1439 1439 1439 1438 1438 1437 1436 1435 1434 1433 1432 1431 1430 1429 1429 1429 1429 1429 1428 1428 1428 1428 1428 1428 1427 1426 1425 1425 1424 1423 1423 1422 1420 1419 1416 1414 1412
1469 1467 1465 1464 1462 1461 1460 1459 1457 1456 1454 1453 1452 1452 1451 1451 1450 1449 1448 1447 1446 1446 1446 1445 1443 1443 1444 1444 1443 1443 1442 1442 1443 1443 1441 1440 1440 1439 1437 1436 1436 1435 1434 1433 1433 1432 1432 1433 1433 1434 1434 1433 1432 1432 1431 1430 1428 1427 1427 1426 1425 1425 1425 1424 1424 1424 1424 1424 1424 1424 1424 1424 1423 1422 1421 1420 1419 1419 1418 1417 1416 1415 1413 1410 1408
1464 1461 1459 1458 1456 1455 1454 1454 1453 1451 1450 1449 1447 1446 1446 1446 1445 1445 1443 1442 1441 1440 1440 1439 1438 1437 1438 1438 1437 1437 1436 1436 1436 1436 1436 1435 1434 1433 1431 1430 1431 1430 1428 1427 1427 1427 1427 1428 1428 1428 1428 1427 1426 1426 1425 1424 1423 1422 1422 1421 1421 1421 1420 1419 1420 1420 1420 1420 1420 1419 1419 1419 1418 1417 1416 1415 1415 1414 1413 1412 1411 1410 1408 1407 1405
1459 1457 1455 1453 1451 1450 1449 1448 1448 1446 1445 1444 1442 1440 1441 1441 1440 1440 1439 1437 1436 1435 1434 1434 1433 1432 1432 1432 1432 1432 1431 1431 1431 1431 1431 1430 1429 1428 1427 1426 1426 1425 1423 1422 1422 1422 1422 1422 1422 1422 1422 1421 1420 1420 1420 1419 1418 1416 1417 1417 1417 1416 1416 1415 1416 1416 1415 1415 1415 1415 1414 1414 1413 1412 1411 1410 1409 1408 1408 1406 1406 1405 1403 1401 1400
1456 1453 1451 1449 1447 1445 1444 1443 1442 1441 1440 1439 1436 1435 1435 1435 1435 1435 1434 1433 1431 1430 1429 1429 1428 1428 1427 1428 1428 1428 1428 1427 1427 1427 1426 1425 1425 1424 1423 1422 1421 1420 1418 1417 1417 1417 1417 1417 1417 1417 1416 1415 1415 1415 1415 1414 1413 1412 1412 1413 1412 1411 1411 1412 1412 1411 1411 1410 1410 1409 1409 1409 1408 1407 1406 1405 1404 1403 1402 1401 1400 1400 1398 1396 1394
1452 1450 1448 1446 1444 1442 1440 1438 1437 1436 1436 1434 1432 1430 1430 1430 1430 1429 1429 1428 1426 1425 1425 1424 1424 1424 1423 1423 1423 1424 1424 1423 1423 1422 1422 1421 1421 1420 1419 1417 1417 1415 1414 1413 1412 1412 1412 1412 1412 1411 1411 1410 1410 1410 1410 1409 1409 1409 1408 1408 1407 1407 1408 1408 1407 1407 1406 1406 1405 1405 1404 1403 1403 1402 1401 1400 1399 1398 1397 1396 1395 1394 1393 1391 1389
1448 1447 1444 1442 1441 1438 1436 1434 1433 1432 1431 1429 1427 1426 1425 1424 1424 1423 1423 1422 1421 1420 1420 1420 1420 1419 1419 1419 1419 1420 1420 1419 1418 1418 1417 1416 1415 1415 1413 1412 1411 1411 1409 1408 1407 1407 1407 1407 1406 1406 1405 1405 1404 1404 1404 1404 1404 1404 1404 1403 1404 1404 1404 1404 1403 1403 1402 1401 1401 1400 1399 1398 1398 1397 1396 1395 1394 1393 1392 1390 1389 1388 1387 1385 1383
1445 1443 1441 1439 1437 1435 1432 1431 1429 1428 1426 1425 1423 1421 1420 1419 1418 1418 1417 1417 1417 1416 1416 1416 1415 1415 1415 1415 1415 1414 1414 1413 1413 1412 1411 1410 1409 1408 1407 1406 1406 1405 1404 1403 1402 1402 1402 1402 1401 1400 1400 1399 1399 1399 1399 1400 1400 1400 1400 1400 1400 1400 1400 1400 1399 1398 1398 1397 1396 1395 1395 1394 1393 1393 1392 1391 1390 1389 1388 1386 1384 1383 1381 1379 1377
1440 1438 1436 1434 1432 1431 1429 1427 1425 1423 1422 1420 1418 1416 1416 1414 1413 1413 1413 1413 1413 1412 1412 1411 1411 1411 1411 1411 1410 1409 1408 1407 1407 1407 1406 1405 1403 1402 1401 1401 1400 1399 1398 1398 1398 1397 1397 1397 1396 1395 1394 1394 1394 1394 1394 1395 1395 1396 1396 1397 1397 1397 1396 1396 1395 1395 1394 1393 1392 1391 1391 1390 1389 1389 1388 1387 1386 1385 1384 1382 1380 1378 1377 1375 1372
1435 1433 1431 1429 1427 1425 1424 1422 1420 1418 1416 1415 1414 1412 1411 1410 1409 1408 1409 1410 1409 1409 1408 1408 1407 1407 1407 1406 1405 1403 1402 1402 1403 1403 1402 1401 1399 1397 1397 1396 1395 1394 1394 1393 1393 1393 1392 1391 1390 1390 1389 1389 1389 1390 1390 1391 1392 1392 1393 1393 1393 1393 1393 1392 1392 1391 1390 1390 1389 1388 1387 1386 1385 1385 1384 1383 1382 1381 1380 1378 1376 1374 1372 1370 1367
1431 1428 1426 1424 1422 1421 1419 1417 1415 1414 1411 1410 1409 1408 1407 1406 1405 1405 1405 1405 1405 1404 1404 1403 1403 1403 1402 1402 1401 1400 1398 1398 1399 1398 1397 1396 1395 1394 1393 1392 1391 1390 1389 1389 1388 1388 1387 1386 1386 1386 1386 1386 1386 1387 1388 1388 1389 1390 1390 1390 1390 1390 1390 1389 1388 1388 1387 1386 1385 1384 1383 1382 1382 1381 1380 1379 1378 1378 1376 1375 1372 1370 1368 1366 1363
1427 1424 1422 1420 1418 1416 1414 1412 1411 1409 1407 1406 1405 1403 1403 1402 1401 1401 1401 1401 1400 1400 1399 1399 1399 1399 1398 1397 1397 1397 1396 1395 1395 1394 1393 1392 1390 1389 1389 1388 1387 1386 1385 1384 1384 1383 1382 1382 1382 1382 1383 1383 1384 1385 1385 1386 1387 1387 1387 1388 1388 1387 1387 1386 1385 1384 1383 1382 1381 1380 1379 1379 1378 1377 1376 1375 1374 1373 1372 1370 1368 1366 1364 1362 1359
1424 1421 1419 1416 1414 1413 1411 1409 1408 1406 1404 1403 1401 1400 1399 1398 1397 1397 1397 1397 1396 1396 1395 1395 1395 1395 1394 1393 1393 1393 1392 1391 1390 1389 1388 1387 1386 1386 1385 1384 1383 1382 1381 1380 1379 1378 1378 1378 1378 1379 1380 1380 1381 1382 1383 1383 1384 1384 1384 1384 1384 1384 1383 1382 1381 1380 1379 1378 1377 1376 1375 1374 1373 1372 1371 1370 1369 1368 1367 1365 1364 1362 1360 1357 1355
1421 1418 1416 1413 1411 1409 1407 1406 1404 1402 1401 1400 1399 1397 1396 1395 1395 1395 1394 1394 1393 1393 1393 1392 1392 1392 1391 1391 1389 1388 1387 1387 1386 1385 1384 1383 1382 1381 1380 1379 1378 1377 1376 1375 1374 1373 1373 1374 1374 1374 1375 1376 1377 1378 1379 1379 1379 1379 1379 1379 1379 1379 1378 1377 1376 1375 1374 1373 1373 1372 1371 1370 1369 1368 1367 1366 1365 1363 1362 1360 1359 1358 1355 1353 1351
1419 1416 1413 1410 1407 1405 1404 1402 1401 1399 1397 1396 1395 1394 1394 1393 1393 1392 1392 1391 1391 1390 1390 1389 1389 1388 1388 1387 1386 1384 1383 1382 1382 1381 1380 1378 1377 1376 1375 1374 1373 1372 1371 1370 1369 1369 1369 1369 1369 1370 1371 1373 1374 1374 1374 1374 1374 1374 1374 1374 1374 1374 1373 1372 1371 1371 1370 1369 1368 1368 1367 1366 1365 1363 1362 1361 1360 1358 1357 1356 1354 1353 1351 1349 1346
1416 1412 1410 1407 1404 1402 1400 1399 1397 1395 1394 1392 1391 1391 1391 1390 1390 1389 1388 1388 1387 1387 1386 1386 1385 1385 1384 1383 1382 1380 1379 1378 1378 1377 1375 1374 1373 1372 1371 1370 1369 1368 1367 1366 1366 1366 1366 1366 1366 1367 1368 1369 1370 1370 1370 1370 1370 1369 1369 1369 1368 1368 1368 1367 1367 1366 1366 1365 1364 1363 1363 1361 1360 1359 1358 1356 1355 1354 1352 1351 1350 1348 1347 1345 1342
1412 1409 1406 1404 1402 1399 1397 1395 1394 1392 1390 1389 1388 1387 1387 1386 1386 1385 1385 1384 1383 1382 1382 1382 1381 1380 1379 1379 1378 1377 1375 1374 1373 1372 1371 1370 1369 1368 1367 1366 1366 1365 1365 1364 1363 1364 1364 1364 1364 1364 1364 1365 1366 1366 1366 1367 1366 1366 1365 1365 1364 1364 1363 1363 1363 1362 1361 1361 1360 1359 1358 1357 1356 1355 1353 1351 1350 1349 1348 1347 1345 1344 1342 1341 1338
1409 1406 1403 1401 1399 1396 1394 1392 1390 1389 1387 1386 1385 1384 1383 1383 1382 1381 1381 1380 1379 1378 1377 1377 1376 1375 1374 1374 1374 1372 1371 1370 1368 1367 1367 1366 1365 1364 1363 1363 1363 1363 1362 1361 1361 1361 1361 1361 1361 1361 1361 1362 1362 1363 1363 1364 1363 1363 1362 1361 1361 1360 1360 1359 1359 1358 1357 1357 1356 1355 1354 1353 1352 1351 1349 1347 1346 1345 1343 1342 1340 1339 1337 1336 1334
1405 1402 1400 1398 1395 1393 1391 1389 1387 1385 1384 1382 1381 1380 1380 1379 1379 1378 1377 1376 1375 1374 1373 1372 1371 1370 1369 1369 1368 1367 1366 1364 1363 1362 1361 1361 1361 1360 1359 1359 1360 1359 1359 1359 1358 1358 1358 1358 1358 1358 1359 1359 1359 1360 1360 1360 1360 1359 1359 1358 1357 1357 1356 1356 1355 1354 1353 1352 1352 1351 1349 1348 1347 1346 1344 1343 1341 1340 1339 1338 1336 1334 1332 1331 1329
1401 1399 1397 1394 1392 1390 1388 1386 1384 1382 1381 1379 1378 1377 1376 1375 1375 1374 1373 1372 1371 1370 1368 1367 1366 1365 1364 1363 1363 1361 1360 1359 1358 1357 1356 1356 1356 1355 1355 1355 1356 1356 1356 1356 1356 1356 1356 1356 1356 1356 1356 1356 1356 1356 1356 1356 1356 1356 1355 1355 1354 1354 1353 1352 1352 1351 1350 1349 1347 1346 1345 1344 1343 1342 1340 1338 1337 1336 1334 1333 1331 1329 1328 1326 1324
1397 1396 1393 1391 1389 1387 1385 1383 1381 1379 1377 1376 1374 1373 1372 1371 1371 1370 1369 1368 1366 1365 1363 1362 1361 1360 1359 1358 1357 1356 1354 1353 1352 1351 1351 1351 1351 1351 1351 1351 1352 1352 1353 1353 1353 1354 1354 1354 1354 1354 1353 1353 1354 1353 1353 1354 1353 1353 1353 1352 1351 1351 1350 1349 1349 1348 1346 1345 1343 1342 1341 1340 1338 1337 1336 1334 1333 1331 1329 1328 1326 1325 1323 1321 1319
1393 1392 1390 1388 1386 1383 1381 1379 1377 1375 1374 1372 1371 1370 1369 1368 1367 1365 1364 1362 1361 1360 1358 1357 1356 1355 1355 1354 1352 1351 1349 1348 1347 1347 1347 1347 1348 1348 1348 1348 1349 1349 1350 1350 1350 1351 1351 1351 1351 1351 1351 1351 1351 1351 1350 1350 1350 1350 1350 1349 1348 1348 1347 1346 1345 1344 1343 1341 1340 1338 1337 1336 1334 1333 1331 1330 1328 1327 1324 1322 1321 1319 1317 1315 1313
1389 1388 1386 1385 1382 1379 1377 1375 1373 1372 1370 1369 1368 1366 1365 1364 1363 1361 1360 1358 1357 1356 1354 1353 1352 1351 1350 1350 1349 1347 1346 1345 1344 1344 1344 1345 1346 1346 1346 1346 1346 1346 1347 1347 1347 1348 1348 1348 1348 1348 1348 1347 1347 1346 1346 1346 1345 1345 1345 1345 1344 1343 1343 1342 1341 1340 1339 1337 1335 1334 1333 1332 1330 1328 1327 1325 1324 1322 1319 1317 1316 1314 1312 1310 1308
1385 1384 1382 1380 1378 1376 1374 1372 1370 1368 1366 1365 1364 1362 1361 1360 1358 1357 1356 1354 1353 1352 1351 1349 1348 1347 1346 1346 1345 1345 1343 1343 1342 1342 1343 1343 1344 1344 1344 1343 1343 1344 1344 1344 1345 1345 1345 1345 1344 1344 1343 1343 1342 1341 1341 1340 1340 1340 1339 1339 1339 1338 1337 1337 1336 1335 1334 1332 1331 1329 1328 1327 1326 1324 1322 1321 1319 1317 1315 1312 1311 1309 1307 1305 1303
1381 1379 1378 1376 1374 1372 1370 1368 1366 1364 1363 1361 1360 1358 1357 1356 1354 1353 1352 1350 1349 1348 1347 1346 1345 1344 1343 1343 1343 1342 1342 1341 1341 1341 1341 1341 1341 1341 1341 1341 1342 1342 1342 1343 1343 1343 1342 1342 1341 1341 1340 1339 1338 1337 1337 1336 1335 1335 1334 1334 1334 1333 1333 1332 1331 1330 1329 1327 1326 1325 1323 1322 1321 1319 1318 1316 1314 1312 1310 1308 1306 1304 1302 1300 1299
1377 1375 1373 1371 1369 1368 1366 1364 1362 1360 1359 1357 1355 1354 1353 1352 1350 1349 1348 1346 1345 1343 1342 1342 1341 1341 1340 1340 1340 1340 1340 1339 1339 1339 1339 1339 1339 1339 1340 1340 1340 1340 1340 1340 1340 1340 1339 1339 1339 1338 1338 1337 1336 1335 1334 1333 1333 1332 1331 1330 1330 1329 1328 1328 1327 1325 1324 1323 1321 1320 1319 1317 1316 1315 1313 1312 1310 1307 1305 1303 1301 1299 1298 1296 1294
1372 1370 1368 1366 1364 1363 1361 1359 1357 1355 1354 1353 1351 1350 1349 1347 1346 1345 1344 1343 1341 1340 1339 1339 1338 1338 1337 1337 1337 1337 1337 1336 1336 1336 1336 1337 1337 1338 1338 1338 1338 1338 1338 1338 1338 1337 1337 1337 1337 1337 1336 1336 1335 1334 1333 1332 1331 1330 1329 1328 1327 1326 1325 1324 1322 1321 1320 1318 1317 1316 1314 1312 1311 1310 1309 1307 1305 1302 1300 1298 1296 1295 1293 1291 1289
1367 1365 1363 1361 1359 1358 1356 1354 1353 1351 1349 1348 1346 1345 1344 1343 1341 1341 1340 1339 1338 1337 1336 1335 1335 1334 1334 1334 1333 1333 1333 1333 1334 1334 1335 1336 1336 1337 1337 1337 1337 1336 1336 1336 1336 1336 1336 1336 1335 1336 1336 1335 1334 1334 1333 1331 1330 1329 1328 1326 1325 1323 1321 1320 1318 1317 1316 1314 1313 1311 1310 1308 1307 1305 1304 1302 1300 1298 1296 1294 1292 1290 1288 1286 1284
1363 1361 1359 1357 1355 1353 1351 1349 1348 1346 1345 1343 1342 1341 1340 1338 1337 1336 1335 1334 1333 1333 1332 1331 1331 1330 1330 1330 1330 1331 1331 1332 1333 1333 1334 1335 1335 1336 1336 1336 1336 1335 1335 1335 1334 1334 1334 1334 1334 1334 1334 1333 1333 1332 1331 1330 1329 1327 1326 1324 1322 1320 1318 1317 1315 1313 1312 1310 1308 1307 1306 1304 1302 1301 1299 1297 1296 1293 1292 1290 1288 1286 1284 1282 1280
1358 1356 1354 1353 1351 1349 1347 1344 1342 1341 1339 1338 1337 1336 1335 1334 1333 1332 1331 1330 1330 1329 1329 1328 1328 1328 1329 1329 1330 1330 1331 1332 1332 1333 1333 1334 1334 1335 1335 1335 1334 1334 1334 1333 1333 1332 1332 1331 1331 1331 1331 1330 1329 1329 1328 1327 1326 1324 1323 1321 1319 1317 1315 1313 1311 1309 1307 1306 1304 1303 1301 1300 1298 1297 1295 1293 1291 1289 1287 1286 1284 1282 1280 1278 1276
1353 1352 1350 1349 1347 1345 1343 1341 1338 1336 1335 1333 1332 1331 1331 1330 1329 1329 1328 1328 1328 1328 1328 1328 1328 1329 1329 1329 1330 1331 1331 1331 1332 1332 1332 1333 1333 1333 1333 1333 1333 1332 1332 1331 1330 1330 1329 1329 1328 1327 1327 1326 1326 1325 1324 1323 1322 1320 1319 1317 1316 1314 1312 1310 1308 1306 1304 1302 1301 1300 1298 1296 1295 1293 1291 1289 1287 1285 1283 1281 1280 1278 1276 1274 1271
1349 1347 1346 1345 1343 1341 1340 1337 1335 1333 1332 1330 1329 1329 1328 1327 1326 1326 1326 1327 1327 1327 1327 1327 1328 1329 1329 1329 1329 1330 1330 1330 1331 1330 1330 1331 1331 1331 1331 1331 1330 1330 1329 1328 1328 1327 1327 1326 1325 1324 1323 1323 1322 1321 1320 1319 1317 1316 1314 1313 1312 1310 1309 1307 1305 1303 1301 1300 1298 1296 1295 1293 1291 1289 1287 1285 1283 1281 1279 1278 1276 1274 1272 1270 1267